DW4008 Weather Reports


time (UTC)temp
F
wind
direction
speed
knots
gust
knots
rain 1hr
in
rain 24hr
in
rain mn
in
humidity
%
barometer
mb
20260504190327 54 88 5.2 0.0 0.00 0.00 0.00 44 1012.3
20260504184823 53 16 7.8 0.0 0.00 0.00 0.00 44 1013.0
20260504183345 59 42 4.3 0.0 0.00 0.00 0.00 29 1011.9
20260504181846 60 69 5.2 0.0 0.00 0.00 0.00 25 1011.6
20260504180327 61 38 4.3 0.0 0.00 0.00 0.00 23 1011.5
20260504174824 63 44 5.2 0.0 0.00 0.00 0.00 23 1011.6
20260504173319 61 341 4.3 0.0 0.00 0.00 0.00 22 1011.7
20260504171827 63 355 7.0 0.0 0.00 0.00 0.00 20 1011.8
20260504170326 62 24 6.1 0.0 0.00 0.00 0.00 21 1011.7
20260504160317 63 299 7.8 0.0 0.00 0.00 0.00 22 1011.7
20260504150321 59 279 3.5 0.0 0.00 0.00 0.00 25 1012.1
20260504140325 55 290 0.9 0.0 0.00 0.00 0.00 27 1011.8
20260504130359 48 59 1.7 0.0 0.00 0.00 0.00 34 1011.7
20260504110321 43 48 0.9 0.0 0.00 0.00 0.00 45 1012.4
20260504100321 43 48 1.7 0.0 0.00 0.00 0.00 42 1012.5
20260504081811 44 41 0.0 0.0 0.00 0.00 0.00 40 1013.4
20260504080325 45 40 0.0 0.0 0.00 0.00 0.00 38 1013.7
20260504070332 45 43 0.9 0.0 0.00 0.00 0.00 39 1014.4
20260504050330 49 284 0.0 0.0 0.00 0.00 0.00 33 1014.8
20260504044830 50 284 0.0 0.0 0.00 0.00 0.00 31 1015.1
20260504043352 51 90 0.0 0.0 0.00 0.00 0.00 31 1014.9
20260504041815 52 123 0.0 0.0 0.00 0.00 0.00 29 1014.8
20260504040328 53 123 0.0 0.0 0.00 0.00 0.00 26 1014.9
20260504034838 55 59 0.0 0.0 0.00 0.00 0.00 24 1014.7
20260504033313 56 59 0.0 0.0 0.00 0.00 0.00 23 1014.6
20260504031835 56 59 0.0 0.0 0.00 0.00 0.00 23 1014.6
20260504030318 57 59 0.0 0.0 0.00 0.00 0.00 22 1014.5
20260504024819 57 59 0.0 0.0 0.00 0.00 0.00 22 1014.4
20260504023334 58 59 0.0 0.0 0.00 0.00 0.00 21 1014.3
20260504021822 59 59 0.9 0.0 0.00 0.00 0.00 20 1014.2
20260504020335 60 65 1.7 0.0 0.00 0.00 0.00 19 1014.0
20260504014829 61 54 1.7 0.0 0.00 0.00 0.00 19 1014.0
20260504013319 61 55 2.6 0.0 0.00 0.00 0.00 17 1013.9
20260504011815 62 32 2.6 0.0 0.00 0.00 0.00 17 1013.9
20260504010335 63 51 1.7 0.0 0.00 0.00 0.00 16 1013.8
20260504004845 63 54 3.5 0.0 0.00 0.00 0.00 16 1013.8
20260504003323 63 5 4.3 0.0 0.00 0.00 0.00 15 1013.9
20260504001830 63 350 4.3 0.0 0.00 0.00 0.00 17 1013.9
20260504000327 64 271 5.2 0.0 0.00 0.00 0.00 19 1013.9
20260503234832 64 276 4.3 0.0 0.00 0.00 0.00 19 1014.0
20260503233327 64 307 3.5 0.0 0.00 0.00 0.00 18 1014.1
20260503231820 64 45 2.6 0.0 0.00 0.00 0.00 19 1013.9
20260503230315 63 277 3.5 0.0 0.00 0.00 0.00 20 1014.1
20260503224830 64 302 5.2 0.0 0.00 0.00 0.00 21 1014.1
20260503223334 65 333 5.2 0.0 0.00 0.00 0.00 18 1014.2
20260503221821 65 46 5.2 0.0 0.00 0.00 0.00 17 1014.5
20260503220314 65 256 3.5 0.0 0.00 0.00 0.00 18 1014.2
20260503214827 65 281 3.5 0.0 0.00 0.00 0.00 19 1014.5
20260503213319 64 260 3.5 0.0 0.00 0.00 0.00 20 1014.9
20260503211816 65 259 4.3 0.0 0.00 0.00 0.00 20 1015.2
20260503210335 64 340 4.3 0.0 0.00 0.00 0.00 20 1015.4
20260503204835 64 47 5.2 0.0 0.00 0.00 0.00 20 1015.6
20260503203320 65 355 4.3 0.0 0.00 0.00 0.00 17 1015.7
20260503201830 66 229 2.6 0.0 0.00 0.00 0.00 17 1015.9
20260503200334 65 245 0.9 0.0 0.00 0.00 0.00 17 1016.2
20260503194837 65 50 1.7 0.0 0.00 0.00 0.00 19 1016.4
20260503193329 64 42 2.6 0.0 0.00 0.00 0.00 18 1016.3
20260503191818 64 9 3.5 0.0 0.00 0.00 0.00 18 1016.7